エレーニン彗星

P/2011 NO1 ( Elenin )

English version
Home page
Updated on October 3, 2011

---------------------------------------------------------------------

・ プロフィール

発見日 2011年7月7日
発見光度 19.5等
発見者 L. Elenin (Lyubertsy, Russia) and I. Molotov (Moscow, Russia)

・ 写真集

・ 軌道要素

Epoch 2011 Feb. 8.0 TT = JDT 2455600.5
T 2011 Jan. 20.53431 TT                                 MPC
q   1.2439202            (2000.0)            P               Q
n   0.07572213     Peri.  263.63718     -0.90984796     +0.34112603
a   5.5333416      Node   296.09480     -0.19164293     -0.85043810
e   0.7751955      Incl.   15.25139     -0.36803488     -0.40048480
P  13.0
From 55 observations 2011 July 7-29, mean residual 0".7.

・ 星図

・ 光度変化

        m1 = 14.5 + 5 logΔ + 10.0 log r

---------------------------------------------------------------------

軌道要素はM.P.E.C. 2011-P23に掲載されたものです。
星図はステラナビゲータ Ver.8 (アストロアーツ) で作成したものです。
光度グラフはComet for Windowsで作成したものです。

---------------------------------------------------------------------

Copyright(C) Seiichi Yoshida (comet@aerith.net). All rights reserved.